| time (UTC) | temp F | wind direction | speed MPH | gust MPH | rain 1hr in | rain 24hr in | rain mn in | humidity % | barometer mb |
| 20260505052602 | 63 | 205 | 2.0 | 6.0 | 0.00 | 0.00 | 0.00 | 61 | 1010.3 |
| 20260505052100 | 63 | 224 | 3.0 | 6.0 | 0.00 | 0.00 | 0.00 | 60 | 1010.3 |
| 20260505051556 | 63 | 250 | 1.0 | 6.0 | 0.00 | 0.00 | 0.00 | 60 | 1010.2 |
| 20260505051055 | 63 | 252 | 4.0 | 9.0 | 0.00 | 0.00 | 0.00 | 60 | 1010.2 |
| 20260505050552 | 63 | 197 | 4.0 | 9.0 | 0.00 | 0.00 | 0.00 | 60 | 1010.1 |
| 20260505041520 | 63 | 235 | 4.0 | 7.0 | 0.00 | 0.00 | 0.00 | 59 | 1010.2 |
| 20260505041017 | 63 | 240 | 4.0 | 14.0 | 0.00 | 0.00 | 0.00 | 58 | 1010.2 |
| 20260505040515 | 64 | 215 | 4.0 | 4.0 | 0.00 | 0.00 | 0.00 | 58 | 1010.2 |
| 20260505040012 | 63 | 176 | 6.0 | 10.0 | 0.00 | 0.00 | 0.00 | 58 | 1010.2 |
| 20260505035508 | 63 | 215 | 2.0 | 6.0 | 0.00 | 0.00 | 0.00 | 59 | 1010.3 |
| 20260505035005 | 63 | 211 | 5.0 | 7.0 | 0.00 | 0.00 | 0.00 | 59 | 1010.2 |
| 20260505034501 | 63 | 221 | 4.0 | 6.0 | 0.00 | 0.00 | 0.00 | 58 | 1010.3 |
| 20260505033958 | 64 | 217 | 6.0 | 8.0 | 0.00 | 0.00 | 0.00 | 59 | 1010.3 |
| 20260505033455 | 64 | 230 | 7.0 | 14.0 | 0.00 | 0.00 | 0.00 | 58 | 1010.4 |
| 20260505032953 | 64 | 206 | 8.0 | 9.0 | 0.00 | 0.00 | 0.00 | 58 | 1010.3 |
| 20260505032450 | 64 | 210 | 5.0 | 11.0 | 0.00 | 0.00 | 0.00 | 59 | 1010.2 |
| 20260505031946 | 64 | 211 | 4.0 | 4.0 | 0.00 | 0.00 | 0.00 | 59 | 1010.2 |
| 20260505031443 | 64 | 219 | 3.0 | 8.0 | 0.00 | 0.00 | 0.00 | 58 | 1010.1 |
| 20260505030940 | 64 | 213 | 5.0 | 11.0 | 0.00 | 0.00 | 0.00 | 58 | 1010.3 |
| 20260505030436 | 64 | 208 | 4.0 | 6.0 | 0.00 | 0.00 | 0.00 | 58 | 1010.3 |
| 20260505025932 | 64 | 230 | 4.0 | 9.0 | 0.00 | 0.00 | 0.00 | 58 | 1010.4 |
| 20260505025429 | 64 | 211 | 5.0 | 10.0 | 0.00 | 0.00 | 0.00 | 57 | 1010.4 |
| 20260505024928 | 64 | 230 | 3.0 | 7.0 | 0.00 | 0.00 | 0.00 | 57 | 1010.3 |
| 20260505024425 | 64 | 191 | 4.0 | 8.0 | 0.00 | 0.00 | 0.00 | 56 | 1010.5 |
| 20260505023922 | 64 | 216 | 3.0 | 6.0 | 0.00 | 0.00 | 0.00 | 55 | 1010.5 |
| 20260505023419 | 64 | 246 | 1.0 | 6.0 | 0.00 | 0.00 | 0.00 | 55 | 1010.5 |
| 20260505022916 | 64 | 217 | 5.0 | 7.0 | 0.00 | 0.00 | 0.00 | 55 | 1010.6 |
| 20260505022414 | 64 | 210 | 2.0 | 9.0 | 0.00 | 0.00 | 0.00 | 54 | 1010.6 |
| 20260505021911 | 64 | 202 | 5.0 | 6.0 | 0.00 | 0.00 | 0.00 | 53 | 1010.4 |
| 20260505021407 | 64 | 208 | 6.0 | 7.0 | 0.00 | 0.00 | 0.00 | 52 | 1010.6 |
| 20260505020903 | 64 | 207 | 4.0 | 6.0 | 0.00 | 0.00 | 0.00 | 51 | 1010.4 |
| 20260505020358 | 63 | 224 | 4.0 | 6.0 | 0.00 | 0.00 | 0.00 | 51 | 1010.5 |
| 20260505015855 | 63 | 220 | 2.0 | 3.0 | 0.00 | 0.00 | 0.00 | 50 | 1010.5 |
| 20260505015353 | 63 | 226 | 1.0 | 1.0 | 0.00 | 0.00 | 0.00 | 49 | 1010.6 |
| 20260505014850 | 64 | 231 | 0.0 | 3.0 | 0.00 | 0.00 | 0.00 | 49 | 1010.4 |
| 20260505014347 | 64 | 232 | 0.0 | 4.0 | 0.00 | 0.00 | 0.00 | 48 | 1010.4 |
| 20260505013843 | 64 | 224 | 1.0 | 2.0 | 0.00 | 0.00 | 0.00 | 47 | 1010.4 |
| 20260505013340 | 65 | 240 | 1.0 | 1.0 | 0.00 | 0.00 | 0.00 | 46 | 1010.5 |
| 20260505012839 | 65 | 219 | 2.0 | 3.0 | 0.00 | 0.00 | 0.00 | 45 | 1010.6 |
| 20260505012337 | 66 | 225 | 2.0 | 4.0 | 0.00 | 0.00 | 0.00 | 45 | 1010.3 |
| 20260505011832 | 66 | 228 | 1.0 | 6.0 | 0.00 | 0.00 | 0.00 | 45 | 1010.3 |
| 20260505011329 | 66 | 194 | 2.0 | 3.0 | 0.00 | 0.00 | 0.00 | 44 | 1010.3 |
| 20260505010825 | 66 | 228 | 2.0 | 4.0 | 0.00 | 0.00 | 0.00 | 44 | 1010.3 |
| 20260505010321 | 66 | 226 | 2.0 | 4.0 | 0.00 | 0.00 | 0.00 | 44 | 1010.1 |
| 20260505005818 | 66 | 219 | 5.0 | 6.0 | 0.00 | 0.00 | 0.00 | 43 | 1010.1 |
| 20260505005315 | 66 | 235 | 1.0 | 4.0 | 0.00 | 0.00 | 0.00 | 43 | 1010.0 |
| 20260505004812 | 67 | 208 | 2.0 | 3.0 | 0.00 | 0.00 | 0.00 | 42 | 1010.0 |
| 20260505004308 | 67 | 230 | 2.0 | 3.0 | 0.00 | 0.00 | 0.00 | 42 | 1009.8 |
| 20260505003806 | 68 | 221 | 4.0 | 6.0 | 0.00 | 0.00 | 0.00 | 41 | 1009.9 |
| 20260505003303 | 68 | 223 | 4.0 | 7.0 | 0.00 | 0.00 | 0.00 | 40 | 1009.9 |
| 20260505002759 | 68 | 207 | 3.0 | 9.0 | 0.00 | 0.00 | 0.00 | 40 | 1009.9 |
| 20260505002256 | 68 | 208 | 3.0 | 4.0 | 0.00 | 0.00 | 0.00 | 40 | 1009.7 |
| 20260505001754 | 68 | 220 | 2.0 | 3.0 | 0.00 | 0.00 | 0.00 | 40 | 1009.7 |
| 20260505001251 | 68 | 231 | 1.0 | 2.0 | 0.00 | 0.00 | 0.00 | 40 | 1009.7 |
| 20260505000748 | 69 | 233 | 0.0 | 1.0 | 0.00 | 0.00 | 0.00 | 39 | 1009.6 |
| 20260505000246 | 69 | 239 | 1.0 | 2.0 | 0.00 | 0.00 | 0.00 | 38 | 1009.6 |
| 20260504235742 | 69 | 225 | 4.0 | 6.0 | 0.00 | 0.00 | 0.00 | 37 | 1009.6 |
| 20260504235239 | 70 | 226 | 2.0 | 6.0 | 0.00 | 0.00 | 0.00 | 37 | 1009.4 |
| 20260504234736 | 70 | 208 | 3.0 | 7.0 | 0.00 | 0.00 | 0.00 | 37 | 1009.5 |
| 20260504234233 | 70 | 232 | 3.0 | 6.0 | 0.00 | 0.00 | 0.00 | 37 | 1009.6 |
| 20260504233730 | 70 | 201 | 3.0 | 6.0 | 0.00 | 0.00 | 0.00 | 36 | 1009.4 |
| 20260504233225 | 70 | 238 | 1.0 | 6.0 | 0.00 | 0.00 | 0.00 | 36 | 1009.3 |
| 20260504232723 | 71 | 244 | 1.0 | 2.0 | 0.00 | 0.00 | 0.00 | 36 | 1009.4 |
| 20260504232219 | 71 | 354 | 4.0 | 6.0 | 0.00 | 0.00 | 0.00 | 36 | 1009.4 |
| 20260504231716 | 71 | 200 | 3.0 | 6.0 | 0.00 | 0.00 | 0.00 | 35 | 1009.5 |
| 20260504231213 | 71 | 256 | 2.0 | 6.0 | 0.00 | 0.00 | 0.00 | 35 | 1009.4 |
| 20260504230709 | 71 | 227 | 5.0 | 11.0 | 0.00 | 0.00 | 0.00 | 34 | 1009.4 |
| 20260504230208 | 72 | 209 | 7.0 | 10.0 | 0.00 | 0.00 | 0.00 | 34 | 1009.3 |
| 20260504225706 | 72 | 224 | 3.0 | 6.0 | 0.00 | 0.00 | 0.00 | 34 | 1009.6 |
| 20260504225201 | 72 | 273 | 4.0 | 11.0 | 0.00 | 0.00 | 0.00 | 33 | 1009.4 |
| 20260504224659 | 72 | 261 | 5.0 | 11.0 | 0.00 | 0.00 | 0.00 | 33 | 1009.3 |
| 20260504224156 | 72 | 262 | 5.0 | 8.0 | 0.00 | 0.00 | 0.00 | 33 | 1009.5 |
| 20260504223653 | 72 | 208 | 8.0 | 10.0 | 0.00 | 0.00 | 0.00 | 32 | 1009.4 |
| 20260504223148 | 72 | 276 | 6.0 | 10.0 | 0.00 | 0.00 | 0.00 | 32 | 1009.4 |
| 20260504222645 | 72 | 231 | 6.0 | 14.0 | 0.00 | 0.00 | 0.00 | 32 | 1009.4 |
| 20260504222142 | 73 | 289 | 4.0 | 10.0 | 0.00 | 0.00 | 0.00 | 32 | 1009.4 |
| 20260504221640 | 73 | 270 | 4.0 | 11.0 | 0.00 | 0.00 | 0.00 | 32 | 1009.4 |
| 20260504221136 | 73 | 240 | 4.0 | 9.0 | 0.00 | 0.00 | 0.00 | 32 | 1009.5 |
| 20260504220633 | 72 | 204 | 5.0 | 7.0 | 0.00 | 0.00 | 0.00 | 32 | 1009.5 |
| 20260504220131 | 72 | 265 | 6.0 | 9.0 | 0.00 | 0.00 | 0.00 | 32 | 1009.5 |
| 20260504215626 | 72 | 199 | 8.0 | 15.0 | 0.00 | 0.00 | 0.00 | 32 | 1009.5 |
| 20260504215124 | 73 | 198 | 13.0 | 18.0 | 0.00 | 0.00 | 0.00 | 31 | 1009.6 |
| 20260504214620 | 73 | 244 | 6.0 | 15.0 | 0.00 | 0.00 | 0.00 | 31 | 1009.5 |
| 20260504214116 | 73 | 265 | 5.0 | 11.0 | 0.00 | 0.00 | 0.00 | 31 | 1009.5 |
| 20260504213613 | 73 | 254 | 1.0 | 7.0 | 0.00 | 0.00 | 0.00 | 31 | 1009.5 |
| 20260504213110 | 73 | 241 | 4.0 | 11.0 | 0.00 | 0.00 | 0.00 | 31 | 1009.5 |
| 20260504212606 | 73 | 244 | 5.0 | 9.0 | 0.00 | 0.00 | 0.00 | 31 | 1009.8 |
| 20260504212103 | 73 | 228 | 3.0 | 10.0 | 0.00 | 0.00 | 0.00 | 31 | 1009.7 |
| 20260504211600 | 73 | 284 | 3.0 | 7.0 | 0.00 | 0.00 | 0.00 | 32 | 1009.4 |
| 20260504211057 | 73 | 239 | 5.0 | 13.0 | 0.00 | 0.00 | 0.00 | 32 | 1009.4 |
| 20260504210554 | 73 | 253 | 4.0 | 13.0 | 0.00 | 0.00 | 0.00 | 31 | 1009.5 |
| 20260504210050 | 73 | 250 | 4.0 | 7.0 | 0.00 | 0.00 | 0.00 | 31 | 1009.4 |
| 20260504205548 | 73 | 232 | 7.0 | 15.0 | 0.00 | 0.00 | 0.00 | 30 | 1009.6 |
| 20260504205046 | 73 | 263 | 3.0 | 10.0 | 0.00 | 0.00 | 0.00 | 30 | 1009.6 |
| 20260504204544 | 73 | 254 | 6.0 | 14.0 | 0.00 | 0.00 | 0.00 | 31 | 1009.6 |
| 20260504204043 | 73 | 258 | 7.0 | 15.0 | 0.00 | 0.00 | 0.00 | 30 | 1009.6 |
| 20260504203540 | 73 | 298 | 7.0 | 10.0 | 0.00 | 0.00 | 0.00 | 30 | 1009.5 |
| 20260504203038 | 73 | 228 | 6.0 | 15.0 | 0.00 | 0.00 | 0.00 | 29 | 1009.5 |
| 20260504202533 | 73 | 207 | 11.0 | 16.0 | 0.00 | 0.00 | 0.00 | 29 | 1009.7 |
| 20260504202030 | 74 | 248 | 5.0 | 9.0 | 0.00 | 0.00 | 0.00 | 30 | 1009.6 |
| 20260504201527 | 74 | 267 | 4.0 | 9.0 | 0.00 | 0.00 | 0.00 | 29 | 1009.6 |
| 20260504201025 | 74 | 242 | 4.0 | 11.0 | 0.00 | 0.00 | 0.00 | 30 | 1009.5 |
| 20260504200521 | 74 | 226 | 5.0 | 7.0 | 0.00 | 0.00 | 0.00 | 30 | 1009.5 |
| 20260504200018 | 74 | 268 | 5.0 | 9.0 | 0.00 | 0.00 | 0.00 | 29 | 1009.6 |
| 20260504195514 | 74 | 256 | 5.0 | 11.0 | 0.00 | 0.00 | 0.00 | 28 | 1009.9 |
| 20260504195011 | 74 | 248 | 5.0 | 9.0 | 0.00 | 0.00 | 0.00 | 29 | 1009.9 |
| 20260504194507 | 74 | 250 | 8.0 | 13.0 | 0.00 | 0.00 | 0.00 | 28 | 1010.0 |
| 20260504194002 | 74 | 245 | 4.0 | 7.0 | 0.00 | 0.00 | 0.00 | 30 | 1009.8 |
| 20260504193500 | 74 | 204 | 8.0 | 11.0 | 0.00 | 0.00 | 0.00 | 29 | 1010.0 |
| 20260504192959 | 75 | 264 | 3.0 | 13.0 | 0.00 | 0.00 | 0.00 | 30 | 1009.9 |
| 20260504192456 | 75 | 244 | 4.0 | 13.0 | 0.00 | 0.00 | 0.00 | 29 | 1010.1 |
| 20260504191955 | 74 | 195 | 6.0 | 9.0 | 0.00 | 0.00 | 0.00 | 29 | 1010.1 |
| 20260504191452 | 74 | 262 | 3.0 | 9.0 | 0.00 | 0.00 | 0.00 | 31 | 1010.2 |
| 20260504190947 | 73 | 278 | 5.0 | 7.0 | 0.00 | 0.00 | 0.00 | 30 | 1010.2 |
| 20260504190443 | 73 | 221 | 6.0 | 11.0 | 0.00 | 0.00 | 0.00 | 29 | 1010.4 |
| 20260504185940 | 73 | 269 | 3.0 | 6.0 | 0.00 | 0.00 | 0.00 | 30 | 1010.5 |
| 20260504185437 | 73 | 241 | 5.0 | 11.0 | 0.00 | 0.00 | 0.00 | 30 | 1010.4 |
| 20260504184933 | 73 | 257 | 6.0 | 9.0 | 0.00 | 0.00 | 0.00 | 31 | 1010.6 |
| 20260504184429 | 73 | 255 | 2.0 | 7.0 | 0.00 | 0.00 | 0.00 | 30 | 1010.7 |
| 20260504183925 | 72 | 308 | 4.0 | 9.0 | 0.00 | 0.00 | 0.00 | 31 | 1010.9 |
| 20260504183423 | 73 | 288 | 7.0 | 11.0 | 0.00 | 0.00 | 0.00 | 30 | 1010.9 |
| 20260504182921 | 72 | 222 | 3.0 | 6.0 | 0.00 | 0.00 | 0.00 | 31 | 1011.0 |
| 20260504182417 | 72 | 266 | 1.0 | 9.0 | 0.00 | 0.00 | 0.00 | 31 | 1011.0 |
| 20260504181914 | 72 | 244 | 7.0 | 15.0 | 0.00 | 0.00 | 0.00 | 30 | 1011.1 |
| 20260504181411 | 72 | 232 | 5.0 | 13.0 | 0.00 | 0.00 | 0.00 | 30 | 1011.1 |
| 20260504180910 | 72 | 264 | 6.0 | 11.0 | 0.00 | 0.00 | 0.00 | 29 | 1011.3 |
| 20260504180408 | 72 | 244 | 3.0 | 6.0 | 0.00 | 0.00 | 0.00 | 30 | 1011.1 |
| 20260504175906 | 72 | 226 | 6.0 | 9.0 | 0.00 | 0.00 | 0.00 | 31 | 1011.5 |
| 20260504175403 | 71 | 272 | 5.0 | 8.0 | 0.00 | 0.00 | 0.00 | 32 | 1011.6 |
| 20260504174901 | 71 | 236 | 4.0 | 9.0 | 0.00 | 0.00 | 0.00 | 31 | 1011.3 |
| 20260504174358 | 71 | 252 | 3.0 | 10.0 | 0.00 | 0.00 | 0.00 | 31 | 1011.5 |
| 20260504173855 | 72 | 259 | 11.0 | 16.0 | 0.00 | 0.00 | 0.00 | 29 | 1011.6 |
| 20260504173351 | 71 | 267 | 4.0 | 6.0 | 0.00 | 0.00 | 0.00 | 31 | 1011.7 |
| 20260504172849 | 71 | 265 | 2.0 | 7.0 | 0.00 | 0.00 | 0.00 | 32 | 1011.9 |
| 20260504172345 | 71 | 266 | 6.0 | 10.0 | 0.00 | 0.00 | 0.00 | 31 | 1011.9 |
| 20260504171841 | 71 | 263 | 5.0 | 7.0 | 0.00 | 0.00 | 0.00 | 30 | 1011.7 |
| 20260504171338 | 70 | 277 | 4.0 | 7.0 | 0.00 | 0.00 | 0.00 | 31 | 1012.0 |
| 20260504170836 | 72 | 239 | 5.0 | 15.0 | 0.00 | 0.00 | 0.00 | 29 | 1012.1 |
| 20260504170332 | 71 | 304 | 2.0 | 3.0 | 0.00 | 0.00 | 0.00 | 32 | 1011.9 |
| 20260504160251 | 68 | 256 | 6.0 | 7.0 | 0.00 | 0.00 | 0.00 | 35 | 1012.7 |
| 20260504150716 | 65 | 264 | 2.0 | 8.0 | 0.00 | 0.00 | 0.00 | 40 | 1013.4 |
| 20260504150213 | 66 | 273 | 8.0 | 11.0 | 0.00 | 0.00 | 0.00 | 40 | 1013.3 |
| 20260504141142 | 63 | 194 | 9.0 | 13.0 | 0.00 | 0.00 | 0.00 | 47 | 1013.4 |
| 20260504140639 | 63 | 236 | 9.0 | 15.0 | 0.00 | 0.00 | 0.00 | 47 | 1013.7 |
| 20260504140134 | 63 | 288 | 5.0 | 11.0 | 0.00 | 0.00 | 0.00 | 48 | 1013.5 |
| 20260504130602 | 59 | 263 | 2.0 | 9.0 | 0.00 | 0.00 | 0.00 | 55 | 1013.9 |
| 20260504110450 | 50 | 239 | 1.0 | 3.0 | 0.00 | 0.00 | 0.00 | 73 | 1014.8 |
| 20260504100413 | 48 | 230 | 3.0 | 4.0 | 0.00 | 0.00 | 0.00 | 71 | 1014.8 |
| 20260504081806 | 48 | 244 | 0.0 | 3.0 | 0.00 | 0.00 | 0.00 | 63 | 1014.8 |
| 20260504081302 | 48 | 236 | 2.0 | 3.0 | 0.00 | 0.00 | 0.00 | 63 | 1014.6 |
| 20260504080759 | 48 | 226 | 1.0 | 2.0 | 0.00 | 0.00 | 0.00 | 63 | 1014.7 |
| 20260504080255 | 48 | 257 | 1.0 | 2.0 | 0.00 | 0.00 | 0.00 | 62 | 1014.5 |
| 20260504070223 | 47 | 251 | 0.0 | 2.0 | 0.00 | 0.00 | 0.00 | 61 | 1014.3 |
| 20260504060143 | 48 | 253 | 0.0 | 2.0 | 0.00 | 0.00 | 0.00 | 58 | 1014.3 |